Weather History for Chester, SC

Change the Weather History Date:

Thursday, May 9, 2013

  Actual Average (KUZA) Record (KUZA)
Temperature  
Mean Temperature 68 °F -  
Max Temperature 82 °F 75 °F 90 °F (1952)
Min Temperature 53 °F 55 °F 40 °F (1956)
Cooling Degree Days 2    
Growing Degree Days 18 (Base 50)    
Moisture  
Dew Point 56 °F    
Average Humidity 63    
Maximum Humidity 100    
Minimum Humidity 35    
Precipitation  
Precipitation 0.00 in - - ()
Sea Level Pressure  
Sea Level Pressure 30.07 in    
Wind  
Wind Speed 3 mph (SW)    
Max Wind Speed 8 mph    
Max Gust Speed -    
Visibility 10 miles    
Events      
Averages and records for this station are not official NWS values.
T = Trace of Precipitation, MM = Missing Value Source: NWS Daily Summary

Daily Weather History Graph

Daily Weather History Graph

Search for Another Location

Airport:

Trip Planner

Search our weather history database for the weather conditions in past years. The results will help you decide how hot, cold, wet, or windy it might be!

Date:

Astronomy

May. 09, 2013 Rise Set
Actual Time 6:26 AM EDT 8:16 PM EDT
Civil Twilight 5:58 AM EDT 8:44 PM EDT
Nautical Twilight 5:25 AM EDT 9:17 PM EDT
Astronomical Twilight 4:50 AM EDT 9:53 PM EDT
Moon 6:08 AM EDT (5/9) 8:10 PM EDT (5/9)
Length of Visible Light 14h 45m
Length of Day
13h 50m
Waning Crescent, 0% of the Moon is Illuminated
May 9
Waning Crescent
May 9
New
May 18
First Quarter
May 25
Full
May 31
Last Quarter

Hourly Weather History & Observations

Time (EDT) Temp. Heat Index Dew Point Humidity Pressure Visibility Wind Dir Wind Speed Gust Speed Precip Events Conditions
1:15 AM 59.0 °F - 57.2 °F 94% 30.02 in 7.0 mi West 4.6 mph - N/A   Clear
2:15 AM 59.0 °F - 55.4 °F 88% 30.01 in 10.0 mi West 4.6 mph - N/A   Clear
3:15 AM 57.2 °F - 55.4 °F 94% 30.01 in 10.0 mi NW 5.8 mph - N/A   Clear
3:55 AM 57.2 °F - 55.4 °F 94% 30.02 in 10.0 mi Calm Calm - N/A   Clear
5:15 AM 55.4 °F - 55.4 °F 100% 30.03 in 10.0 mi Calm Calm - N/A   Clear
5:35 AM 53.6 °F - 53.6 °F 100% 30.03 in 10.0 mi Calm Calm - N/A   Clear
5:55 AM 55.4 °F - 55.4 °F 100% 30.03 in 10.0 mi Calm Calm - N/A   Clear
6:15 AM 53.6 °F - 53.6 °F 100% 30.05 in 10.0 mi Calm Calm - N/A   Clear
7:55 AM 60.8 °F - 59.0 °F 94% 30.08 in 10.0 mi Calm Calm - N/A   Clear
8:35 AM 66.2 °F - 57.2 °F 73% 30.09 in 10.0 mi Calm Calm - N/A   Clear
9:15 AM 68.0 °F - 57.2 °F 68% 30.09 in 7.0 mi Calm Calm - N/A   Clear
10:55 AM 73.4 °F - 55.4 °F 53% 30.11 in 7.0 mi NNE 4.6 mph - N/A   Clear
11:15 AM 73.4 °F - 55.4 °F 53% 30.11 in 10.0 mi WNW 3.5 mph - N/A   Clear
11:35 AM 75.2 °F - 53.6 °F 47% 30.11 in 10.0 mi North 3.5 mph - N/A   Clear
11:55 AM 75.2 °F - 53.6 °F 47% 30.11 in 7.0 mi NNE 4.6 mph - N/A   Clear
12:15 PM 77.0 °F - 55.4 °F 47% 30.11 in 7.0 mi Calm Calm - N/A   Clear
12:35 PM 77.0 °F - 55.4 °F 47% 30.11 in 10.0 mi SSW 3.5 mph - N/A   Clear
12:55 PM 78.8 °F - 55.4 °F 44% 30.11 in 10.0 mi WSW 6.9 mph - N/A   Clear
1:15 PM 78.8 °F - 53.6 °F 42% 30.11 in 10.0 mi SSW 3.5 mph - N/A   Clear
1:35 PM 80.6 °F 80.3 °F 53.6 °F 39% 30.11 in 10.0 mi WNW 3.5 mph - N/A   Clear
1:55 PM 80.6 °F 80.3 °F 53.6 °F 39% 30.10 in 10.0 mi West 4.6 mph - N/A   Clear
2:15 PM 78.8 °F - 51.8 °F 39% 30.09 in 10.0 mi South 3.5 mph - N/A   Clear
2:35 PM 80.6 °F 80.3 °F 53.6 °F 39% 30.09 in 10.0 mi NW 4.6 mph - N/A   Scattered Clouds
2:55 PM 80.6 °F 80.3 °F 53.6 °F 39% 30.08 in 10.0 mi South 3.5 mph - N/A   Scattered Clouds
3:15 PM 82.4 °F 81.4 °F 53.6 °F 37% 30.08 in 10.0 mi WNW 8.1 mph - N/A   Mostly Cloudy
3:35 PM 80.6 °F - 51.8 °F 37% 30.07 in 10.0 mi Calm Calm - N/A   Scattered Clouds
4:15 PM 82.4 °F - 51.8 °F 35% 30.05 in 10.0 mi WSW 5.8 mph - N/A   Scattered Clouds
4:35 PM 82.4 °F 81.4 °F 53.6 °F 37% 30.05 in 10.0 mi SSW 4.6 mph - N/A   Scattered Clouds
4:55 PM 82.4 °F 81.4 °F 53.6 °F 37% 30.05 in 10.0 mi SSW 3.5 mph - N/A   Scattered Clouds
5:15 PM 80.6 °F 80.3 °F 53.6 °F 39% 30.05 in 10.0 mi SSW 3.5 mph - N/A   Scattered Clouds
5:35 PM 80.6 °F 80.3 °F 53.6 °F 39% 30.05 in 10.0 mi Calm Calm - N/A   Clear
5:55 PM 80.6 °F 80.3 °F 53.6 °F 39% 30.05 in 10.0 mi South 3.5 mph - N/A   Scattered Clouds
6:15 PM 80.6 °F 80.3 °F 53.6 °F 39% 30.05 in 10.0 mi SW 4.6 mph - N/A   Scattered Clouds
6:35 PM 78.8 °F - 55.4 °F 44% 30.05 in 10.0 mi Calm Calm - N/A   Clear
6:55 PM 78.8 °F - 57.2 °F 47% 30.05 in 10.0 mi Calm Calm - N/A   Scattered Clouds
7:15 PM 77.0 °F - 57.2 °F 50% 30.05 in 10.0 mi Calm Calm - N/A   Scattered Clouds
7:35 PM 73.4 °F - 59.0 °F 61% 30.05 in 10.0 mi Calm Calm - N/A   Clear
7:55 PM 71.6 °F - 60.8 °F 69% 30.06 in 10.0 mi Calm Calm - N/A   Clear
8:35 PM 69.8 °F - 59.0 °F 68% 30.06 in 10.0 mi Calm Calm - N/A   Clear
8:55 PM 68.0 °F - 59.0 °F 73% 30.06 in 10.0 mi South 3.5 mph - N/A   Clear
9:15 PM 68.0 °F - 59.0 °F 73% 30.07 in 10.0 mi South 3.5 mph - N/A   Clear
9:35 PM 68.0 °F - 60.8 °F 78% 30.07 in 10.0 mi SSW 3.5 mph - N/A   Clear
9:55 PM 66.2 °F - 59.0 °F 78% 30.08 in 10.0 mi Calm Calm - N/A   Clear
10:15 PM 64.4 °F - 59.0 °F 83% 30.09 in 10.0 mi SSW 3.5 mph - N/A   Clear
10:35 PM 64.4 °F - 59.0 °F 83% 30.09 in 10.0 mi SSW 3.5 mph - N/A   Clear
10:55 PM 64.4 °F - 59.0 °F 83% 30.09 in 10.0 mi SSW 3.5 mph - N/A   Clear
11:15 PM 62.6 °F - 59.0 °F 88% 30.09 in 10.0 mi SSW 3.5 mph - N/A   Clear
11:35 PM 64.4 °F - 59.0 °F 83% 30.09 in 10.0 mi SSW 4.6 mph - N/A   Clear
11:55 PM 62.6 °F - 59.0 °F 88% 30.09 in 10.0 mi SSW 3.5 mph - N/A   Clear